FLOCK 4G 20

导读

FLOCK 4G 20是美国Planet Labs公司Flock 4G对地观测星座成员,于2025年1月14日成功发射,目前运行在近地轨道。作为一颗小型高分辨率光学遥感卫星,它凭借小卫星技术实现低成本快速部署,可提供地球表面高清影像,广泛服务于环境监测、农业估产、城市规划与应急灾害响应等领域,是全球对地观测网络中重要的卫星节点。

基本信息
目录编号:
62636
目录名称:
FLOCK 4G 20
国际标识:
2025-009AD
轨道中心:
EARTH
卫星名称:
FLOCK 4G 20
卫星全名:
FLOCK 4G 20
卫星状态:
在轨 (已飞行599 天)
发射日期:
2025-01-14 UTC
国别 :
美国 (US)
星等 :
--
轨道信息
数据来源 国际轨道数据
星历时间: 2026-09-05T00:18:27+0800
15小时前
查看轨道信息
半长轴: 6730.928km
偏心率: 0.0000702
轨道倾角: 97.379°
近地点辐角 48.433°
升交点赤经 335.623°
平近点角 311.699°
近地点: 352.318km
远地点: 353.264km
周期: 91.595分钟
每日圈数: 15.721369
详细信息
使用方式:
暂无
2D轨道图
3D轨道图
轨道高度分析图
轨道倾角分析图
轨道综合分析图
查看轨道综合分析图
交会数据列表
事件ID 空间交会对象 最接近时刻(TCA) 交会距离 交会风险概率(CRP) 交会风险指数(CRI) 操作
CDM_260907-030506-242006-263622
2026-09-07T
03:05:26+0000
1.586 km
极远距离
5.515764E-6 低风险 0.5
CDM_260907-142506-256506-263621
2026-09-07T
14:25:51+0000
1.944 km
极远距离
2.96968E-6 低风险 0.44
CDM_260907-035106-242006-263621
2026-09-07T
03:51:15+0000
2.356 km
极远距离
1.940041E-6 低风险 0.41
CDM_260907-044306-263606-301121
2026-09-07T
04:43:48+0000
2.460 km
极远距离
1.768944E-6 低风险 0.4